Flag for France Weather past 2 weeks in Tours, France

Now
72 °F

Clear.


Feels Like: 71 °F
Forecast: 67 / 83 °F
Wind: 3 mph from Southeast

Location: Tours Airport

Current Time: Aug 31, 2015 at 1:27:16 AM

Latest Report: Aug 31, 2015 at 1:00 AM


Visibility: 10 mi

Pressure: 29.92 "Hg

Humidity: 83%

Dew point: 66 °F

Location of ToursLocation

Historic Weather in Tours — Graph

°F

Tours temperature yesterday

Maximum temperature yesterday: 91 °F (at 6:00 PM)
Minimum temperature yesterday: 66 °F (at 7:00 AM)
Average temperature yesterday: 78 °F

Past Weeks' High & Low Weather Summary

 TemperatureHumidityPressure
High91 °F (Aug 22, 4:30 PM)100% (Aug 23, 6:30 AM)30.21 "Hg (Aug 23, 6:30 AM)
Low50 °F (Aug 16, 4:30 AM)26% (Aug 22, 2:30 PM)29.47 "Hg (Aug 24, 7:30 AM)
Average68 °F68%29.97 "Hg
* Reported Aug 16 1:00 AM — Aug 31 12:30 AM, Tours, Weather by CustomWeather, © 2015

Note: Actual official high and low records may vary slightly from our data, if they occured in-between our weather recording intervals... More about our weather records

Advertising

Tours weather history for previous 24 hours

 ConditionsComfort  
Time TempWeatherWind HumidityBarometerVisibility
12:30 AM
Mon, Aug 31
72 °FClear.3 mph83%29.92 "Hg10 mi
12:00 AM73 °FClear.3 mph78%29.92 "Hg10 mi
11:30 PM
Sun, Aug 30
73 °FClear.2 mph83%29.92 "Hg10 mi
11:00 PM75 °FClear.3 mph78%29.92 "Hg10 mi
10:30 PM77 °FClear.3 mph74%29.95 "Hg10 mi
10:00 PM77 °FClear.1 mph69%29.95 "Hg10 mi
9:30 PM77 °FSunny.No wind69%29.95 "Hg10 mi
9:00 PM81 °FSunny.1 mph58%29.92 "Hg10 mi
8:30 PM82 °FSunny.2 mph58%29.92 "Hg10 mi
8:00 PM84 °FSunny.3 mph55%29.95 "Hg10 mi
7:30 PM86 °FSunny.3 mph49%29.95 "Hg10 mi
7:00 PM88 °FSunny.6 mph46%29.95 "Hg10 mi
6:30 PM91 °FPassing clouds.9 mph38%29.95 "HgN/A
6:00 PM91 °FSunny.2 mph38%29.95 "Hg10 mi
5:30 PM90 °FSunny.3 mph41%29.95 "Hg10 mi
5:00 PM90 °FPassing clouds.6 mph38%29.95 "HgN/A
4:30 PM90 °FPassing clouds.6 mph38%29.95 "HgN/A
4:00 PM90 °FPassing clouds.7 mph38%29.98 "HgN/A
3:30 PM90 °FPassing clouds.6 mph38%29.98 "HgN/A
3:00 PM88 °FPassing clouds.8 mph40%29.98 "HgN/A
2:30 PM86 °FPassing clouds.7 mph40%29.98 "HgN/A
2:00 PM86 °FPassing clouds.9 mph43%29.98 "HgN/A
1:30 PM84 °FPassing clouds.8 mph43%29.98 "HgN/A
1:00 PM84 °FPassing clouds.8 mph43%30.01 "HgN/A
12:30 PM84 °FPassing clouds.8 mph40%30.01 "HgN/A
12:00 PM82 °FPassing clouds.8 mph42%30.01 "HgN/A
11:30 AM81 °FPassing clouds.7 mph45%30.01 "HgN/A
11:00 AM79 °FPassing clouds.7 mph51%30.01 "HgN/A
10:30 AM77 °FPassing clouds.6 mph57%30.01 "HgN/A
10:00 AM75 °FPassing clouds.3 mph57%30.01 "HgN/A
9:30 AM75 °FSunny.3 mph61%30.01 "Hg10 mi
9:00 AM73 °FSunny.3 mph69%30.01 "Hg10 mi
8:30 AM72 °FSunny.3 mph73%30.01 "Hg10 mi
8:00 AM68 °FClear.3 mph83%30.01 "Hg10 mi
7:30 AM66 °FClear.6 mph83%30.01 "Hg10 mi
7:00 AM66 °FClear.6 mph88%30.01 "Hg10 mi
6:30 AM68 °FClear.5 mph83%30.01 "Hg10 mi
5:30 AM68 °FClear.6 mph88%30.01 "Hg10 mi
5:00 AM70 °FClear.6 mph83%29.98 "Hg10 mi
4:30 AM73 °FClear.7 mph74%29.98 "Hg10 mi
4:00 AM73 °FClear.7 mph78%29.98 "Hg10 mi
3:30 AM70 °FClear.3 mph88%29.98 "Hg10 mi
3:00 AM72 °FClear.5 mph83%30.01 "Hg10 mi
2:30 AM72 °FClear.5 mph88%30.01 "Hg10 mi
2:00 AM72 °FClear.5 mph88%29.98 "Hg10 mi
1:30 AM72 °FClear.2 mph88%30.01 "Hg10 mi
1:00 AM73 °FClear.3 mph89%29.98 "Hg10 mi
Weather by CustomWeather, © 2015

See weather overviewHow to use our weather pages